Ionia, MI

3:14 AM EST on November 21, 2019 (GMT -0500)
Ionia

Weather History for KY70 - September, 2019

Change the Weather History Date:

Sunday, September 8, 2019

  Actual Average (WUND) Record (WUND)
Temperature  
Mean Temperature 58 °F -  
Max Temperature 65 °F - - (-1)
Min Temperature 51 °F - - (-1)
Degree Days  
Heating Degree Days 7    
Growing Degree Days 8 (Base 50)    
Moisture  
Dew Point 51 °F    
Average Humidity 77    
Maximum Humidity 91    
Minimum Humidity 62    
Precipitation  
Precipitation 0.00 in - - ()
Sea Level Pressure  
Sea Level Pressure 30.14 in    
Wind  
Wind Speed 5 mph ()    
Max Wind Speed 14 mph    
Max Gust Speed 16 mph    
Visibility 10.0 miles    
Events      
Averages and records for this station are not official NWS values.
T = Trace of Precipitation, MM = Missing Value Source: Averaged Metar Reports

Daily Weather History Graph

Daily Weather History Graph

Search for Another Location

Airport or City:

Astronomy

Sep. 08, 2019 Rise Set
Actual Time 7:12 AM EDT 8:03 PM EDT
Civil Twilight 6:43 AM EDT 8:31 PM EDT
Nautical Twilight 6:09 AM EDT 9:05 PM EDT
Astronomical Twilight 5:33 AM EDT 9:41 PM EDT
Moon 5:18 PM EDT (9/8) 1:43 AM EDT (9/8)
Length of Visible Light 13h 48m
Length of Day
12h 50m
Waxing Gibbous, 75% of the Moon is Illuminated
Sep 8
Waxing Gibbous
Sep 14
Full
Sep 21
Last Quarter
Sep 28
New
Oct 5
First Quarter

Hourly Weather History & Observations

Time (EDT) Temp. Dew Point Humidity Pressure Visibility Wind Dir Wind Speed Gust Speed Precip Events Conditions
12:15 AM 60.3 °F 54.0 °F 80% 30.05 in 10.0 mi North 5.8 mph - N/A   Clear
12:16 AM 60.3 °F 54.0 °F 80% 30.05 in 10.0 mi North 5.8 mph - N/A   Clear
12:35 AM 60.1 °F 53.6 °F 79% 30.05 in 10.0 mi North 4.6 mph - N/A   Clear
12:36 AM 60.3 °F 53.6 °F 79% 30.05 in 10.0 mi North 4.6 mph - N/A   Clear
12:59 AM 59.9 °F 53.6 °F 80% 30.06 in 10.0 mi NNE 3.5 mph - N/A   Clear
1:17 AM 59.5 °F 53.1 °F 79% 30.06 in 10.0 mi NNE 3.5 mph - N/A   Clear
1:35 AM 59.0 °F 52.3 °F 79% 30.07 in 10.0 mi North 3.5 mph - N/A   Clear
1:55 AM 58.6 °F 50.9 °F 75% 30.07 in 10.0 mi North 4.6 mph - N/A   Clear
2:15 AM 57.7 °F 50.9 °F 78% 30.07 in 10.0 mi North 4.6 mph - N/A   Clear
2:38 AM 56.5 °F 50.4 °F 80% 30.08 in 10.0 mi North 4.6 mph - N/A   Clear
2:56 AM 56.3 °F 50.2 °F 80% 30.07 in 10.0 mi North 3.5 mph - N/A   Clear
3:15 AM 55.6 °F 50.0 °F 81% 30.07 in 10.0 mi North 3.5 mph - N/A   Clear
3:35 AM 55.6 °F 49.6 °F 80% 30.07 in 10.0 mi Calm Calm - N/A   Clear
3:59 AM 55.4 °F 49.6 °F 81% 30.07 in 10.0 mi North 4.6 mph - N/A   Clear
4:17 AM 55.4 °F 49.6 °F 81% 30.07 in 10.0 mi North 3.5 mph - N/A   Clear
4:35 AM 54.0 °F 48.7 °F 82% 30.07 in 10.0 mi North 3.5 mph - N/A   Clear
4:55 AM 52.9 °F 48.9 °F 86% 30.08 in 10.0 mi North 3.5 mph - N/A   Clear
5:15 AM 53.1 °F 49.5 °F 88% 30.08 in 10.0 mi North 3.5 mph - N/A   Clear
5:20 AM 52.7 °F 49.1 °F 88% 30.08 in 10.0 mi North 4.6 mph - N/A   Clear
5:38 AM 52.3 °F 49.1 °F 89% 30.08 in 10.0 mi North 3.5 mph - N/A   Clear
5:56 AM 52.5 °F 48.9 °F 88% 30.09 in 10.0 mi North 3.5 mph - N/A   Clear
6:15 AM 52.7 °F 49.3 °F 88% 30.10 in 10.0 mi NNW 3.5 mph - N/A   Clear
6:35 AM 51.1 °F 48.2 °F 90% 30.10 in 10.0 mi North 3.5 mph - N/A   Clear
6:59 AM 51.3 °F 48.6 °F 90% 30.11 in 10.0 mi North 3.5 mph - N/A   Clear
7:16 AM 52.0 °F 49.1 °F 90% 30.12 in 10.0 mi Calm Calm - N/A   Clear
7:35 AM 53.1 °F 49.1 °F 86% 30.13 in 10.0 mi Calm Calm - N/A   Clear
7:36 AM 52.9 °F 48.9 °F 86% 30.13 in 10.0 mi Calm Calm - N/A   Clear
7:55 AM 53.1 °F 49.1 °F 86% 30.14 in 10.0 mi Calm Calm - N/A   Clear
7:56 AM 52.9 °F 49.1 °F 87% 30.14 in 10.0 mi Calm Calm - N/A   Clear
8:15 AM 52.7 °F 50.0 °F 91% 30.14 in 10.0 mi North 4.6 mph - N/A   Clear
8:20 AM 52.9 °F 50.2 °F 91% 30.14 in 10.0 mi North 4.6 mph - N/A   Clear
8:38 AM 54.0 °F 50.7 °F 89% 30.14 in 10.0 mi North 4.6 mph - N/A   Clear
8:56 AM 55.0 °F 51.1 °F 86% 30.14 in 10.0 mi NNE 5.8 mph - N/A   Clear
9:15 AM 55.8 °F 51.1 °F 84% 30.15 in 10.0 mi NNE 5.8 mph - N/A   Scattered Clouds
9:16 AM 55.8 °F 51.1 °F 84% 30.15 in 10.0 mi North 5.8 mph - N/A   Scattered Clouds
9:35 AM 56.7 °F 52.2 °F 85% 30.15 in 10.0 mi ENE 4.6 mph - N/A   Scattered Clouds
9:36 AM 56.8 °F 52.2 °F 84% 30.15 in 10.0 mi NE 5.8 mph - N/A   Clear
9:59 AM 57.2 °F 51.8 °F 82% 30.15 in 10.0 mi NNE 4.6 mph - N/A   Clear
10:17 AM 58.1 °F 52.3 °F 81% 30.16 in 10.0 mi NE 3.5 mph - N/A   Clear
10:35 AM 58.5 °F 52.2 °F 80% 30.16 in 10.0 mi NNE 4.6 mph - N/A   Mostly Cloudy
10:55 AM 58.3 °F 52.2 °F 80% 30.16 in 10.0 mi NE 3.5 mph - N/A   Overcast
10:56 AM 58.5 °F 52.3 °F 80% 30.16 in 10.0 mi NE 3.5 mph - N/A   Overcast
11:15 AM 59.2 °F 52.9 °F 80% 30.16 in 10.0 mi ENE 4.6 mph - N/A   Overcast
11:20 AM 59.4 °F 52.9 °F 79% 30.16 in 10.0 mi ENE 4.6 mph - N/A   Overcast
11:38 AM 59.9 °F 52.9 °F 78% 30.16 in 10.0 mi NE 4.6 mph - N/A   Overcast
11:56 AM 60.4 °F 53.4 °F 78% 30.15 in 10.0 mi NE 5.8 mph - N/A   Overcast
12:15 PM 61.2 °F 52.9 °F 74% 30.16 in 10.0 mi NNE 4.6 mph - N/A   Overcast
12:35 PM 61.7 °F 52.9 °F 73% 30.16 in 10.0 mi NNE 5.8 mph - N/A   Overcast
12:59 PM 62.1 °F 52.0 °F 70% 30.15 in 10.0 mi NE 6.9 mph - N/A   Overcast
1:16 PM 63.0 °F 52.3 °F 68% 30.15 in 10.0 mi ENE 8.1 mph - N/A   Overcast
1:35 PM 62.6 °F 52.9 °F 70% 30.15 in 10.0 mi ENE 5.8 mph - N/A   Overcast
1:55 PM 63.5 °F 51.6 °F 65% 30.15 in 10.0 mi NE 6.9 mph - N/A   Overcast
1:56 PM 63.5 °F 51.6 °F 65% 30.15 in 10.0 mi NE 5.8 mph - N/A   Overcast
2:15 PM 63.5 °F 51.8 °F 66% 30.15 in 10.0 mi NE 8.1 mph - N/A   Overcast
2:20 PM 63.7 °F 52.2 °F 66% 30.15 in 10.0 mi NE 6.9 mph - N/A   Overcast
2:38 PM 64.4 °F 52.2 °F 64% 30.15 in 10.0 mi NE 5.8 mph - N/A   Mostly Cloudy
2:56 PM 64.6 °F 52.3 °F 64% 30.15 in 10.0 mi NE 6.9 mph - N/A   Overcast
3:15 PM 64.4 °F 52.2 °F 64% 30.16 in 10.0 mi NNE 3.5 mph - N/A   Overcast
3:35 PM 64.6 °F 52.3 °F 64% 30.16 in 10.0 mi NE 5.8 mph - N/A   Overcast
3:59 PM 65.3 °F 52.2 °F 62% 30.16 in 10.0 mi NNE 4.6 mph - N/A   Mostly Cloudy
4:17 PM 63.9 °F 53.6 °F 69% 30.17 in 10.0 mi NE 8.1 mph - N/A   Mostly Cloudy
4:35 PM 64.0 °F 52.9 °F 67% 30.17 in 10.0 mi ENE 9.2 mph - N/A   Overcast
4:55 PM 64.0 °F 52.5 °F 66% 30.16 in 10.0 mi ENE 9.2 mph - N/A   Overcast
5:15 PM 63.7 °F 52.9 °F 68% 30.16 in 10.0 mi ENE 8.1 mph - N/A   Overcast
5:38 PM 62.8 °F 52.2 °F 68% 30.16 in 10.0 mi ENE 10.4 mph - N/A   Mostly Cloudy
5:56 PM 63.5 °F 52.5 °F 67% 30.16 in 10.0 mi ENE 6.9 mph - N/A   Scattered Clouds
6:15 PM 63.7 °F 52.7 °F 67% 30.16 in 10.0 mi East 4.6 mph - N/A   Mostly Cloudy
6:16 PM 63.9 °F 52.9 °F 67% 30.16 in 10.0 mi East 4.6 mph - N/A   Mostly Cloudy
6:35 PM 63.0 °F 51.8 °F 67% 30.16 in 10.0 mi ENE 9.2 mph - N/A   Overcast
6:36 PM 63.0 °F 51.8 °F 67% 30.16 in 10.0 mi ENE 8.1 mph - N/A   Overcast
6:59 PM 62.1 °F 52.3 °F 70% 30.16 in 10.0 mi ENE 5.8 mph - N/A   Mostly Cloudy
7:17 PM 61.7 °F 52.0 °F 70% 30.16 in 10.0 mi ENE 5.8 mph - N/A   Mostly Cloudy
7:35 PM 61.2 °F 52.2 °F 72% 30.16 in 10.0 mi ENE 6.9 mph - N/A   Overcast
7:55 PM 60.6 °F 52.2 °F 74% 30.15 in 10.0 mi ENE 8.1 mph - N/A   Overcast
8:15 PM 59.4 °F 51.8 °F 76% 30.16 in 10.0 mi NE 5.8 mph - N/A   Scattered Clouds
8:38 PM 59.4 °F 51.4 °F 75% 30.17 in 10.0 mi NE 6.9 mph - N/A   Mostly Cloudy
8:56 PM 59.2 °F 51.3 °F 75% 30.18 in 10.0 mi NE 9.2 mph - N/A   Mostly Cloudy
9:15 PM 59.0 °F 50.5 °F 73% 30.19 in 10.0 mi NE 9.2 mph - N/A   Overcast
9:16 PM 59.0 °F 50.5 °F 73% 30.19 in 10.0 mi NE 9.2 mph - N/A   Overcast
9:35 PM 59.0 °F 50.0 °F 72% 30.19 in 10.0 mi NE 9.2 mph - N/A   Overcast
9:59 PM 58.6 °F 49.5 °F 72% 30.20 in 10.0 mi ENE 10.4 mph - N/A   Overcast
10:17 PM 58.5 °F 49.3 °F 72% 30.21 in 10.0 mi ENE 13.8 mph - N/A   Mostly Cloudy
10:55 PM 57.9 °F 49.5 °F 73% 30.22 in 10.0 mi ENE 10.4 mph 16.1 mph N/A   Overcast
10:56 PM 57.9 °F 49.5 °F 73% 30.22 in 10.0 mi ENE 12.7 mph 16.1 mph N/A   Overcast
11:15 PM 57.7 °F 49.3 °F 73% 30.22 in 10.0 mi ENE 9.2 mph - N/A   Overcast
11:19 PM 57.6 °F 49.3 °F 74% 30.22 in 10.0 mi ENE 6.9 mph - N/A   Overcast
11:38 PM 57.4 °F 48.7 °F 73% 30.22 in 10.0 mi ENE 8.1 mph - N/A   Overcast
11:56 PM 57.2 °F 48.6 °F 73% 30.22 in 10.0 mi ENE 8.1 mph - N/A   Overcast